Location: Wawayanda State Park
(41.1833°N, 74.4333°W)
Time: 20:40:49
(UTC-04:00)

Daily predictions for brighter satellites

Satellite Brightness Start Highest point End
(mag) Time Altitude Azimuth Time Altitude Azimuth Time Altitude Azimuth
NOSS 2-2 (E) 3.6 20:43:47 10° SSW 20:47:50 59° ESE 20:52:32 10° NE
Cosmos 2082 Rocket 4.5 20:53:15 10° NE 20:54:01 10° NE 20:54:47 10° NE
deb Chang Zheng 4 4.3 20:50:08 10° NNE 20:54:08 33° E 20:58:08 10° SSE
OPS 6432 4.5 20:51:17 10° SSW 20:54:43 48° ESE 20:57:45 10° NE
Cosmos 2184 Rocket 4.0 20:49:34 10° S 20:55:36 62° E 21:01:42 10° NNE
CZ-3C R/B 4.3 20:25:47 10° SW 20:56:36 23° SSW 21:04:46 10° SE
CZ-2D R/B 4.4 20:52:57 10° S 20:56:36 44° W 21:00:17 10° NNW
ERBS 2.4 20:53:11 10° NW 20:56:40 76° NE 21:00:07 10° SE
Meteor 2-3 Rocket 3.9 20:51:07 10° SSW 20:56:45 80° W 21:02:23 10° N
FENGYUN 3A 4.3 20:52:28 10° S 20:57:47 59° W 21:03:06 10° NNW
Cosmos 1356 Rocket 3.4 20:54:49 10° S 20:59:01 74° E 21:03:18 10° NNE
Cosmos 1733 Rocket 3.2 20:54:47 10° S 20:59:07 56° E 21:03:25 10° NNE
Cosmos 2263 Rocket 3.7 20:54:37 10° SW 20:59:58 42° WNW 21:05:20 10° N
SL-8 R/B 3.7 20:57:21 10° WSW 21:02:11 86° SSE 21:07:01 10° ENE
YAOGAN 11 4.2 20:58:00 10° SSE 21:02:31 87° ENE 21:07:06 10° NNW
Cosmos 407 Rocket 4.1 20:58:11 10° N 21:03:12 43° ENE 21:08:14 10° SE
Meteor 1-27 Rocket 4.3 21:02:21 10° N 21:07:32 38° ENE 21:12:38 10° SE
PSLV R/B 3.6 21:04:24 10° W 21:07:46 53° SSW 21:10:49 12° ESE
ERS-1 Rocket 3.0 21:04:08 10° SSE 21:09:10 82° ENE 21:14:14 10° NNW
Meteor 2-10 Rocket 3.9 21:03:52 10° N 21:09:43 87° W 21:15:24 10° S
Cosmos 1452 Rocket 4.2 21:05:41 10° SSE 21:10:17 32° E 21:14:56 10° NE
Cosmos 1340 Rocket 3.9 21:08:16 10° SSW 21:12:07 49° WNW 21:16:03 10° N
Cosmos 909 Rocket 4.4 21:07:02 10° SSW 21:13:30 88° WNW 21:21:22 10° NNE
Abrixas rocket 4.3 21:12:38 10° W 21:15:15 21° SW 21:17:50 10° S
Cosmos 1190 Rocket 4.0 21:10:41 10° NNW 21:15:53 68° ENE 21:20:56 11° SSE
CZ-4 DEB 3.8 21:12:50 10° S 21:15:53 45° W 21:18:58 10° NNW
Cosmos 1782 2.8 21:15:34 10° N 21:19:36 70° E 21:23:37 10° SSE
USA 234 4.3 21:17:45 10° ENE 21:22:30 21° ESE 21:27:12 10° S
Atlas Centaur 2 2.9 21:20:23 10° SW 21:22:32 15° S 21:23:49 13° SSE
USA 186 4.3 21:20:27 10° SW 21:22:48 20° W 21:25:16 10° NW
Cosmos 1939 Rocket 2.8 21:20:04 10° SSE 21:23:56 89° ENE 21:27:52 10° NNW
Cosmos 1606 3.1 21:21:39 10° N 21:25:27 46° E 21:28:25 15° SSE
H-2A R/B 2.0 21:21:19 10° SSE 21:25:39 78° ENE 21:29:54 10° N
Cosmos 2074 Rocket 4.4 21:22:44 10° SSW 21:29:00 70° W 21:35:16 10° N
CZ-4B R/B 4.3 21:25:50 10° NE 21:30:06 28° E 21:33:05 16° SE
Cosmos 1892 4.1 21:28:34 10° SSW 21:32:12 41° WNW 21:35:52 10° N
Nadezhda 3 Rocket 4.0 21:38:05 10° N 21:44:27 75° E 21:50:03 14° SSE
Cosmos 676 Rocket 4.0 21:40:51 10° NNW 21:46:04 76° ENE 21:49:43 20° SSE
Cosmos 1184 Rocket 3.3 21:45:10 26° SSE 21:46:31 41° E 21:49:42 10° NNE
Okean 2 Rocket 3.6 21:45:32 21° SSE 21:48:02 41° E 21:52:11 10° NNE
CENTAUR R/B 3.9 21:42:40 10° NW 21:50:08 46° WSW 21:57:55 10° S
MetOp-B 4.1 21:46:46 17° SSE 21:50:57 79° ENE 21:56:20 10° N
Cosmos 1174 3.1 21:48:09 10° NNW 21:51:24 71° ENE 21:52:28 36° SE
Cosmos 1954 Rocket 4.0 21:47:06 10° NNW 21:52:18 67° ENE 21:55:30 23° SSE
Sich 1 Rocket 4.2 21:50:13 10° SSW 21:54:45 62° W 21:59:18 10° N
CZ-4 SHROUD 3.2 21:59:35 31° S 22:00:53 73° WSW 22:03:59 10° NNW
Intercosmos 25 3.3 22:02:34 34° SSE 22:03:42 48° E 22:06:48 10° NNE
ARGOS 3.2 22:01:08 25° SSE 22:04:14 64° ENE 22:09:33 10° N
Cosmos 2341 Rocket 4.0 21:58:01 10° S 22:04:20 86° E 22:10:39 10° N
ATLAS 5 CENTAUR R/B 3.6 22:00:20 10° NW 22:05:51 37° WSW 22:10:53 13° S
SL-27 R/B 4.4 22:03:27 10° NW 22:06:32 26° W 22:09:10 12° SSW
COS B Rocket 4.0 22:03:00 10° N 22:07:05 53° W 22:10:09 14° SSW
Cosmos 1782 Rocket 3.5 22:04:17 18° S 22:07:32 84° E 22:12:03 10° N
Landsat 7 4.4 22:09:27 30° ESE 22:11:14 42° ENE 22:15:43 10° N
Okean 3 3.5 22:08:30 10° N 22:12:48 78° W 22:14:59 28° S
Meteor 2-13 Rocket 4.4 22:07:54 16° S 22:12:51 75° E 22:19:02 10° NNE
PSLV R/B 4.2 22:12:36 27° SSW 22:13:41 39° W 22:16:29 10° NNW
COSMOS 2487 2.4 22:11:17 10° NNW 22:14:55 88° WSW 22:15:53 47° SSE
DNEPR-1 R/B 4.2 22:10:04 10° NNW 22:15:27 55° NE 22:17:21 33° ESE
Timation 2 Rocket 4.0 22:10:56 10° NNW 22:16:55 64° ENE 22:19:46 31° SE
APEX 3.6 22:17:23 43° SE 22:18:03 48° ESE 22:22:40 10° NE
Cosmos 1238 Rocket 3.1 22:15:35 10° NNW 22:18:41 49° W 22:20:11 28° SSW
Cosmos 2278 Rocket 2.2 22:13:50 10° SSW 22:19:31 86° WNW 22:25:14 10° NNE
SPOT 5 4.0 22:17:34 14° SSW 22:21:46 44° W 22:26:54 10° NNW
Cosmos 1833 Rocket 3.7 22:17:16 10° N 22:22:21 34° ENE 22:24:36 25° E
Cosmos 1844 4.5 22:17:38 10° SW 22:23:15 54° WNW 22:28:58 10° NNE
Cosmos 1975 Rocket 3.1 22:19:03 10° NNW 22:23:22 71° W 22:25:16 32° S
Cosmos 1023 Rocket 4.4 22:18:15 10° NNW 22:23:23 84° ENE 22:25:29 37° SSE
Cosmos 1825 3.3 22:21:19 13° SSW 22:24:26 43° W 22:28:07 10° N
CARTOSAT-1 4.2 22:24:39 36° E 22:25:29 40° ENE 22:29:32 10° N
SL-8 Rocket 3.9 22:21:27 23° S 22:25:35 76° E 22:31:50 10° N
ISS -3.3 22:23:09 10° SW 22:25:57 63° SW 22:25:57 63° SW
Terra 2.4 22:25:43 35° ESE 22:26:59 42° ENE 22:31:28 10° N
Cosmos 1844 Rocket 4.2 22:22:55 10° SW 22:28:07 37° WNW 22:33:19 10° N
YAOGAN 6 3.9 22:29:22 24° SW 22:30:47 34° W 22:34:01 10° NNW
Cosmos 1408 4.2 22:29:47 13° SW 22:32:42 33° WNW 22:36:03 10° NNW
Cosmos 1420 Rocket 4.0 22:31:28 16° SSW 22:35:44 82° WNW 22:41:00 10° NNE
Cosmos 1536 Rocket 3.9 22:31:49 10° N 22:36:10 48° E 22:36:45 45° ESE
H-2A R/B 2.2 22:34:39 40° SE 22:36:31 65° ENE 22:41:48 10° N
ASTEX 1 4.3 22:34:33 10° NNE 22:38:59 31° E 22:39:07 31° E
Cosmos 2082 Rocket 2.4 22:33:47 10° NNW 22:39:25 57° ENE 22:41:15 40° ESE
USA 245 4.1 22:40:07 30° WSW 22:40:45 33° W 22:44:09 10° NNW
Cosmos 1812 3.9 22:37:23 10° NNE 22:40:32 30° ENE 22:40:32 30° ENE
Cosmos 1242 Rocket 3.2 22:39:46 10° NNW 22:43:19 49° W 22:43:56 43° SW
CZ-4C R/B 3.2 22:49:12 73° SSW 22:49:30 80° WSW 22:53:32 10° NNW
Cosmos 614 Rocket 3.8 22:46:12 10° NNW 22:51:19 84° WSW 22:52:31 53° S
Cosmos 2297 3.6 22:48:46 26° SSW 22:52:10 89° ESE 22:57:57 10° NNE
SL-08 RB Rocket 4.3 22:51:07 36° SSW 22:52:36 50° W 22:57:07 10° NNW
Cosmos 2151 Rocket 3.5 22:52:35 57° SSW 22:53:30 86° W 22:58:04 10° N
Cosmos 1140 Rocket 4.1 22:51:44 10° NNW 22:56:39 48° WSW 22:58:17 35° SSW
Cosmos 864 Rocket 4.4 22:54:36 37° S 22:57:15 89° E 23:03:26 10° N
Cosmos 2366 rocket 4.1 23:01:48 32° SSW 23:04:53 76° W 23:11:14 10° N
USA 234 3.1 22:59:29 10° NE 23:06:04 84° SE 23:12:36 10° SW
SAR-Lupe-2 4.2 23:11:18 52° N 23:11:18 52° N 23:14:06 10° N
Spot 2 4.1 23:11:29 10° NNE 23:15:27 69° NE 23:15:27 69° NE
Okean 1 Rocket 3.3 23:22:47 61° NE 23:22:47 61° NE 23:26:41 10° NNE
Cosmos 1025 Rocket 4.4 23:18:40 10° NNE 23:21:53 28° ENE 23:21:53 28° ENE
Cosmos 1300 Rocket 3.6 23:23:42 72° NNE 23:23:42 72° NNE 23:27:45 10° N
Okean 1-7 Rocket 3.9 23:19:38 10° N 23:23:41 60° NE 23:23:41 60° NE
BREEZE-M DEB (TANK) 4.3 23:25:26 10° NW 23:27:41 23° NNE 23:32:07 10° ENE
Cosmos 2369 Rocket 3.8 23:31:03 21° ENE 23:31:03 21° ENE 23:33:55 10° NE
Okean 1 3.8 23:27:13 10° NNW 23:30:38 58° NW 23:30:38 58° NW
IGS 5A 4.4 23:32:35 39° W 23:32:35 39° W 23:36:19 10° NNW
Meteor 1-20 Rocket 4.4 23:33:05 48° SW 23:34:27 64° WNW 23:39:58 10° N
Cosmos 1000 Rocket 4.3 23:36:53 10° N 23:43:10 83° E 23:44:01 68° SSE
Cosmos 2239 Rocket 4.4 23:47:42 69° SSE 23:48:26 78° E 23:54:46 10° N
